"startDT [UTC]","vpos","CH4 [ppm]","stdev(CH4) [ppm]","CO2 [ppm]","stdev(CO2) [ppm]","H2O_reported [%]","stdev(H2O_reported)","CavityPressure [torr]","CavityTemp [C]","OutletValve","CH4_dry [ppm]","CO2_dry [ppm]","DasTemp [C]","EtalonTemp [C]","WarmBoxTemp [C]","MPVPosition","T_ECpre [C]","T_EC1 [C]","T_EC2 [C]","p_inlet [hPa]","p_in [hPa]","p_out [hPa]","T_inlet [C]","RH_inlet [%]","dwpt_inlet [C]","T_vent [C]","RH_vent [%]","dwpt_vent [C]","flow_vent [l min-1]","flow_inlet [l min-1]","dwpt_sample [C]","T_room [C]"
2016-01-18 00:00:00,0.0,1.94243,0.00041,406.186,0.033,0.0814,0.0021,139.999,45.000,31903.96389,1.94395,406.581,35.304,45.069,45.000,0.00,0.08,-272.75,-272.82,-8,526,-968,21.4,2.6,-27.1,21.6,2.7,-26.7,5.73,2.01,-15.9,27.8
2016-01-18 00:01:00,0.0,1.94272,0.00039,406.218,0.026,0.0812,0.0017,140.001,45.000,31903.58022,1.94429,406.615,35.310,45.069,45.000,0.00,0.09,-272.75,-272.80,-8,526,-968,21.4,2.6,-27.0,21.6,2.7,-26.7,5.73,2.01,-15.8,27.8
2016-01-18 00:02:00,0.0,1.94276,0.00038,406.234,0.042,0.0811,0.0016,139.997,45.000,31901.96734,1.94429,406.630,35.277,45.069,45.000,0.00,0.09,-272.75,-272.81,-8,526,-968,21.4,2.6,-27.1,21.6,2.7,-26.7,5.73,2.01,-15.9,27.8
2016-01-18 00:03:00,0.0,1.94303,0.00034,406.300,0.031,0.0816,0.0020,140.002,45.000,31902.77219,1.94460,406.697,35.253,45.069,45.000,0.00,0.09,-272.75,-272.82,-8,526,-968,21.4,2.6,-27.2,21.6,2.7,-26.7,5.73,2.01,-15.9,27.8
2016-01-18 00:04:00,0.0,1.94335,0.00033,406.344,0.022,0.0816,0.0016,140.002,45.000,31903.20986,1.94488,406.743,35.261,45.069,45.000,0.00,0.09,-272.75,-272.81,-8,526,-968,21.4,2.6,-27.1,21.6,2.7,-26.7,5.73,2.01,-15.9,27.9
2016-01-18 00:05:00,0.0,1.94352,0.00027,406.318,0.039,0.0822,0.0019,140.000,45.000,31902.03059,1.94509,406.720,35.280,45.070,45.000,0.00,0.08,-272.75,-272.81,-8,526,-968,21.4,2.6,-27.1,21.6,2.7,-26.7,5.73,2.01,-15.9,27.9
2016-01-18 00:06:00,0.0,1.94351,0.00029,406.339,0.039,0.0817,0.0020,140.000,45.000,31903.20080,1.94508,406.739,35.261,45.070,45.000,0.00,0.08,-272.76,-272.81,-8,526,-968,21.4,2.6,-27.1,21.6,2.7,-26.7,5.73,2.01,-15.9,27.8
2016-01-18 00:07:00,0.0,1.94369,0.00036,406.382,0.035,0.0812,0.0017,139.999,45.000,31902.22649,1.94526,406.778,35.261,45.070,45.000,0.00,0.09,-272.76,-272.81,-8,526,-968,21.4,2.6,-27.1,21.6,2.7,-26.7,5.73,2.01,-15.9,27.9
2016-01-18 00:08:00,0.0,1.94378,0.00037,406.372,0.036,0.0808,0.0014,140.000,45.000,31902.26598,1.94530,406.769,35.259,45.070,45.000,0.00,0.09,-272.75,-272.80,-8,526,-968,21.4,2.6,-27.2,21.6,2.7,-26.7,5.73,2.01,-15.9,27.8
2016-01-18 00:09:00,0.0,1.94361,0.00027,406.361,0.031,0.0814,0.0020,139.999,45.000,31902.31260,1.94520,406.757,35.277,45.070,45.000,0.00,0.08,-272.76,-272.81,-8,526,-968,21.4,2.6,-27.1,21.6,2.7,-26.7,5.73,2.01,-15.9,27.8
2016-01-18 00:10:00,0.0,1.94348,0.00039,406.294,0.040,0.0808,0.0015,139.997,45.000,31903.05588,1.94501,406.691,35.289,45.070,45.000,0.00,0.09,-272.76,-272.82,-8,526,-968,21.4,2.6,-27.2,21.6,2.7,-26.7,5.73,2.01,-15.8,27.9
2016-01-18 00:11:00,0.0,1.94365,0.00036,406.308,0.035,0.0811,0.0013,140.001,45.000,31905.13249,1.94520,406.705,35.309,45.069,45.000,0.00,0.09,-272.74,-272.81,-8,526,-968,21.4,2.6,-27.1,21.6,2.7,-26.7,5.73,2.00,-15.9,27.9
2016-01-18 00:12:00,0.0,1.94374,0.00045,406.316,0.058,0.0809,0.0017,140.000,45.000,31904.65668,1.94529,406.712,35.313,45.069,45.000,0.00,0.08,-272.75,-272.81,-8,526,-968,21.4,2.6,-27.2,21.6,2.7,-26.6,5.73,2.01,-15.8,27.9
2016-01-18 00:13:00,0.0,1.94383,0.00043,406.301,0.033,0.0812,0.0014,140.000,45.000,31904.55268,1.94539,406.698,35.317,45.069,45.000,0.00,0.08,-272.76,-272.81,-8,526,-968,21.4,2.6,-27.2,21.6,2.7,-26.7,5.73,2.00,-15.8,27.8
2016-01-18 00:14:00,0.0,1.94405,0.00045,406.301,0.043,0.0816,0.0022,140.003,45.000,31904.31203,1.94558,406.699,35.312,45.069,45.000,0.00,0.09,-272.75,-272.81,-8,526,-968,21.4,2.6,-27.1,21.6,2.7,-26.7,5.73,2.00,-15.8,27.9
2016-01-18 00:15:00,0.0,1.94428,0.00039,406.387,0.051,0.0817,0.0016,140.000,45.000,31904.37286,1.94583,406.785,35.313,45.069,45.000,0.00,0.09,-272.75,-272.81,-8,526,-968,21.4,2.6,-27.0,21.6,2.7,-26.7,5.73,2.02,-15.8,27.9
2016-01-18 00:16:00,0.0,1.94453,0.00034,406.392,0.039,0.0820,0.0019,140.002,45.000,31903.91617,1.94613,406.794,35.300,45.069,45.000,0.00,0.08,-272.75,-272.82,-8,526,-968,21.4,2.6,-27.1,21.6,2.7,-26.6,5.73,2.01,-15.8,27.9
2016-01-18 00:17:00,0.0,1.94449,0.00031,406.403,0.039,0.0823,0.0013,139.998,45.000,31903.84474,1.94606,406.806,35.299,45.069,45.000,0.00,0.08,-272.75,-272.81,-8,526,-968,21.4,2.6,-27.0,21.6,2.7,-26.6,5.73,2.01,-15.8,27.9
2016-01-18 00:18:00,0.0,1.94476,0.00038,406.413,0.027,0.0805,0.0018,139.999,45.000,31905.62175,1.94628,406.806,35.273,45.069,45.000,0.00,0.09,-272.75,-272.80,-8,526,-968,21.4,2.6,-27.1,21.6,2.7,-26.6,5.73,2.01,-15.8,27.9
2016-01-18 00:19:00,0.0,1.94484,0.00025,406.389,0.031,0.0816,0.0017,139.999,45.000,31905.27638,1.94641,406.789,35.294,45.070,45.000,0.00,0.08,-272.76,-272.81,-8,526,-968,21.4,2.6,-27.1,21.6,2.7,-26.7,5.73,2.00,-15.8,27.9
2016-01-18 00:20:00,0.0,1.94460,0.00034,406.331,0.041,0.0822,0.0013,140.002,45.000,31907.99282,1.94618,406.732,35.308,45.070,45.000,0.00,0.09,-272.76,-272.81,-8,526,-968,21.4,2.6,-27.0,21.6,2.7,-26.7,5.73,2.00,-15.8,27.9
2016-01-18 00:21:00,0.0,1.94483,0.00041,406.414,0.033,0.0816,0.0017,140.000,45.000,31906.48871,1.94638,406.813,35.303,45.069,45.000,0.00,0.09,-272.75,-272.81,-8,526,-968,21.4,2.6,-27.0,21.6,2.7,-26.6,5.73,2.00,-15.8,27.9
2016-01-18 00:22:00,0.0,1.94473,0.00039,406.403,0.033,0.0814,0.0016,140.002,45.000,31910.16686,1.94629,406.801,35.256,45.069,45.000,0.00,0.09,-272.75,-272.81,-8,526,-968,21.4,2.6,-27.0,21.6,2.7,-26.7,5.73,2.01,-15.8,27.9
2016-01-18 00:23:00,0.0,1.94471,0.00044,406.443,0.041,0.0818,0.0014,139.997,45.000,31908.92039,1.94626,406.841,35.253,45.070,45.000,0.00,0.08,-272.75,-272.81,-8,526,-968,21.4,2.6,-27.0,21.7,2.7,-26.7,5.73,2.00,-15.8,27.9
2016-01-18 00:24:00,0.0,1.94478,0.00028,406.486,0.034,0.0817,0.0015,139.998,45.000,31908.09846,1.94635,406.887,35.256,45.070,45.000,0.00,0.09,-272.75,-272.81,-8,526,-968,21.4,2.6,-27.1,21.6,2.7,-26.6,5.73,2.01,-15.8,27.9
2016-01-18 00:25:00,0.0,1.94484,0.00036,406.487,0.037,0.0819,0.0018,140.001,45.000,31908.79874,1.94641,406.887,35.267,45.070,45.000,0.00,0.08,-272.75,-272.81,-8,526,-968,21.5,2.6,-27.0,21.6,2.7,-26.6,5.73,2.00,-15.8,27.9
2016-01-18 00:26:00,0.0,1.94505,0.00043,406.441,0.030,0.0816,0.0018,139.999,45.000,31908.52242,1.94661,406.840,35.267,45.070,45.000,0.00,0.08,-272.75,-272.81,-8,526,-968,21.4,2.6,-27.1,21.6,2.7,-26.7,5.73,2.00,-15.8,27.9
2016-01-18 00:27:00,0.0,1.94526,0.00039,406.502,0.025,0.0817,0.0013,140.001,45.000,31906.97125,1.94681,406.901,35.308,45.069,45.000,0.00,0.08,-272.75,-272.81,-8,526,-968,21.4,2.6,-27.0,21.6,2.7,-26.6,5.73,2.00,-15.8,27.9
2016-01-18 00:28:00,0.0,1.94522,0.00030,406.476,0.042,0.0812,0.0016,140.002,45.000,31909.19877,1.94679,406.874,35.307,45.069,45.000,0.00,0.09,-272.74,-272.81,-8,526,-968,21.4,2.6,-27.0,21.7,2.7,-26.7,5.73,2.00,-15.8,27.9
2016-01-18 00:29:00,0.0,1.94496,0.00045,406.467,0.023,0.0809,0.0019,140.002,45.000,31910.45565,1.94650,406.863,35.308,45.069,45.000,0.00,0.09,-272.75,-272.82,-8,526,-968,21.4,2.6,-27.0,21.6,2.7,-26.6,5.73,2.00,-15.8,27.9
2016-01-18 00:30:00,0.0,1.94541,0.00047,406.499,0.049,0.0814,0.0025,140.002,45.000,31910.27279,1.94694,406.896,35.313,45.069,45.000,0.00,0.08,-272.75,-272.81,-8,526,-968,21.4,2.6,-27.1,21.7,2.7,-26.7,5.73,2.01,-15.8,27.9
2016-01-18 00:31:00,0.0,1.94476,0.00049,406.376,0.083,0.0813,0.0016,140.002,45.000,31909.77277,1.94636,406.775,35.313,45.069,45.000,0.00,0.09,-272.75,-272.81,-8,526,-968,21.4,2.6,-27.1,21.6,2.7,-26.6,5.73,2.01,-15.8,27.9
2016-01-18 00:32:00,0.0,1.94522,0.00036,406.438,0.041,0.0810,0.0015,139.998,45.000,31907.78106,1.94677,406.835,35.315,45.069,45.000,0.00,0.09,-272.75,-272.81,-8,526,-968,21.4,2.6,-27.1,21.6,2.7,-26.7,5.73,2.01,-15.8,27.9
2016-01-18 00:33:00,0.0,1.94552,0.00064,406.450,0.075,0.0812,0.0019,140.003,45.000,31908.30386,1.94706,406.845,35.318,45.069,45.000,0.00,0.08,-272.76,-272.81,-8,526,-968,21.4,2.6,-27.2,21.6,2.7,-26.6,5.73,2.01,-15.8,27.9
2016-01-18 00:34:00,0.0,1.94450,0.00178,406.311,0.315,0.0812,0.0017,139.999,45.000,31908.13859,1.94623,406.724,35.329,45.069,45.000,0.00,0.09,-272.75,-272.81,-8,526,-968,21.4,2.6,-27.1,21.7,2.7,-26.6,5.73,2.00,-15.8,27.9
2016-01-18 00:35:00,0.0,1.94101,0.00040,405.701,0.074,0.0811,0.0021,140.000,45.000,31908.22616,1.94253,406.093,35.329,45.069,45.000,0.00,0.09,-272.75,-272.81,-8,526,-968,21.5,2.6,-27.1,21.7,2.7,-26.6,5.73,2.00,-15.8,27.9
2016-01-18 00:36:00,0.0,1.93775,0.00153,405.274,0.194,0.0808,0.0016,140.000,45.000,31908.44142,1.93946,405.682,35.331,45.069,45.000,0.00,0.08,-272.76,-272.81,-8,526,-968,21.4,2.6,-27.1,21.7,2.6,-26.8,5.73,2.00,-15.8,27.9
2016-01-18 00:37:00,0.0,1.93484,0.00055,404.964,0.062,0.0807,0.0018,139.998,45.000,31909.42071,1.93643,405.359,35.336,45.069,45.000,0.00,0.08,-272.76,-272.81,-8,526,-968,21.4,2.6,-27.2,21.7,2.6,-26.8,5.73,2.01,-15.8,27.9
2016-01-18 00:38:00,0.0,1.93443,0.00041,404.932,0.034,0.0801,0.0012,140.000,45.000,31908.89327,1.93597,405.322,35.338,45.069,45.000,0.00,0.09,-272.75,-272.81,-8,526,-968,21.4,2.6,-27.2,21.6,2.7,-26.7,5.73,2.01,-15.8,27.9
2016-01-18 00:39:00,0.0,1.93428,0.00053,404.938,0.032,0.0807,0.0020,140.000,45.000,31909.84448,1.93578,405.332,35.317,45.069,45.000,0.00,0.09,-272.75,-272.82,-8,526,-968,21.5,2.6,-27.2,21.7,2.7,-26.7,5.73,2.01,-15.8,27.9
2016-01-18 00:40:00,0.0,1.93463,0.00037,404.939,0.030,0.0809,0.0012,139.997,45.000,31907.12049,1.93618,405.333,35.314,45.069,45.000,0.00,0.09,-272.75,-272.82,-8,526,-968,21.4,2.6,-27.1,21.6,2.6,-26.7,5.73,2.01,-15.8,27.9
2016-01-18 00:41:00,0.0,1.93402,0.00038,404.902,0.037,0.0804,0.0015,140.000,45.000,31910.29536,1.93556,405.295,35.318,45.069,45.000,0.00,0.09,-272.75,-272.82,-8,526,-968,21.5,2.6,-27.1,21.7,2.7,-26.6,5.73,2.01,-15.8,27.9
2016-01-18 00:42:00,0.0,1.93426,0.00033,404.913,0.033,0.0817,0.0016,140.001,45.000,31911.45132,1.93582,405.310,35.315,45.069,45.000,0.00,0.09,-272.75,-272.81,-8,526,-968,21.5,2.6,-27.1,21.7,2.7,-26.7,5.73,2.01,-15.8,27.9
2016-01-18 00:43:00,0.0,1.93456,0.00040,404.952,0.035,0.0819,0.0017,139.998,45.000,31906.56940,1.93611,405.350,35.313,45.069,45.000,0.00,0.08,-272.76,-272.81,-8,526,-968,21.5,2.6,-27.1,21.7,2.7,-26.6,5.73,2.01,-15.8,27.9
2016-01-18 00:44:00,0.0,1.93480,0.00049,404.936,0.024,0.0816,0.0020,139.999,45.000,31907.52192,1.93635,405.335,35.313,45.070,45.000,0.00,0.09,-272.75,-272.81,-8,526,-968,21.5,2.6,-27.1,21.7,2.7,-26.6,5.73,2.01,-15.8,27.9
2016-01-18 00:45:00,0.0,1.93476,0.00042,404.951,0.035,0.0820,0.0013,140.001,45.000,31908.43493,1.93634,405.350,35.316,45.069,45.000,0.00,0.09,-272.75,-272.81,-8,526,-968,21.5,2.6,-27.0,21.7,2.7,-26.7,5.73,2.01,-15.8,27.9
2016-01-18 00:46:00,0.0,1.93496,0.00037,404.987,0.021,0.0822,0.0017,140.001,45.000,31906.09645,1.93653,405.388,35.317,45.070,45.000,0.00,0.09,-272.76,-272.81,-8,526,-968,21.5,2.6,-27.0,21.7,2.7,-26.6,5.73,2.01,-15.8,27.9
2016-01-18 00:47:00,0.0,1.93474,0.00038,404.982,0.036,0.0816,0.0016,140.002,45.000,31907.44264,1.93629,405.380,35.317,45.070,45.000,0.00,0.09,-272.76,-272.82,-8,526,-968,21.5,2.6,-27.0,21.7,2.7,-26.6,5.73,2.01,-15.8,28.0
2016-01-18 00:48:00,0.0,1.93463,0.00036,404.972,0.028,0.0817,0.0016,140.001,45.000,31907.88156,1.93620,405.370,35.344,45.069,45.000,0.00,0.09,-272.75,-272.81,-8,526,-968,21.5,2.6,-27.0,21.7,2.7,-26.6,5.73,2.01,-15.8,28.0
2016-01-18 00:49:00,0.0,1.93564,0.00077,405.018,0.029,0.0822,0.0016,140.003,45.000,31909.74626,1.93713,405.417,35.335,45.069,45.000,0.00,0.08,-272.75,-272.81,-8,526,-968,21.5,2.6,-27.0,21.7,2.7,-26.6,5.73,2.01,-15.8,28.0
2016-01-18 00:50:00,0.0,1.93644,0.00042,405.047,0.041,0.0819,0.0017,139.999,45.000,31907.87042,1.93801,405.447,35.314,45.069,45.000,0.00,0.08,-272.76,-272.80,-8,526,-968,21.5,2.6,-27.1,21.7,2.7,-26.6,5.73,2.01,-15.8,28.0
2016-01-18 00:51:00,0.0,1.93580,0.00022,404.978,0.027,0.0820,0.0016,140.001,45.000,31907.47963,1.93738,405.378,35.315,45.069,45.000,0.00,0.09,-272.75,-272.81,-8,526,-968,21.5,2.6,-27.0,21.7,2.7,-26.6,5.73,2.01,-15.8,28.0
2016-01-18 00:52:00,0.0,1.93629,0.00064,405.013,0.031,0.0815,0.0019,140.000,45.000,31905.65178,1.93781,405.409,35.317,45.069,45.000,0.00,0.09,-272.75,-272.81,-8,526,-968,21.5,2.6,-27.1,21.7,2.7,-26.6,5.73,2.01,-15.8,28.0
2016-01-18 00:53:00,0.0,1.93600,0.00052,405.007,0.031,0.0818,0.0014,140.001,45.000,31910.51511,1.93758,405.405,35.343,45.069,45.000,0.00,0.08,-272.76,-272.82,-8,526,-968,21.5,2.6,-27.0,21.7,2.7,-26.6,5.73,2.01,-15.8,28.0
2016-01-18 00:54:00,0.0,1.93593,0.00036,404.983,0.036,0.0819,0.0015,139.998,45.000,31909.78740,1.93748,405.382,35.351,45.069,45.000,0.00,0.08,-272.75,-272.82,-8,526,-968,21.5,2.6,-27.0,21.7,2.7,-26.6,5.73,2.02,-15.8,28.0
2016-01-18 00:55:00,0.0,1.93588,0.00041,404.974,0.034,0.0820,0.0016,140.000,45.000,31909.02803,1.93744,405.375,35.327,45.069,45.000,0.00,0.09,-272.75,-272.81,-8,526,-968,21.5,2.6,-27.0,21.7,2.7,-26.6,5.73,2.02,-15.8,28.0
2016-01-18 00:56:00,0.0,1.93605,0.00030,404.961,0.044,0.0814,0.0020,140.000,45.000,31907.60967,1.93760,405.358,35.328,45.069,45.000,0.00,0.08,-272.76,-272.81,-8,526,-968,21.5,2.6,-27.0,21.7,2.7,-26.6,5.73,2.02,-15.8,28.0
2016-01-18 00:57:00,0.0,1.93587,0.00034,404.947,0.021,0.0813,0.0016,140.000,45.000,31907.98022,1.93744,405.345,35.335,45.070,45.000,0.00,0.08,-272.76,-272.81,-8,526,-968,21.5,2.6,-27.1,21.7,2.7,-26.5,5.73,2.02,-15.8,27.9
2016-01-18 00:58:00,0.0,1.93575,0.00034,404.946,0.032,0.0821,0.0017,139.999,45.000,31910.24935,1.93732,405.345,35.338,45.069,45.000,0.00,0.09,-272.76,-272.81,-8,526,-968,21.5,2.6,-27.0,21.7,2.7,-26.6,5.73,2.02,-15.8,28.0
2016-01-18 00:59:00,0.0,1.93583,0.00038,404.982,0.025,0.0816,0.0018,140.000,45.000,31907.39496,1.93737,405.380,35.352,45.069,45.000,0.00,0.09,-272.75,-272.82,-8,526,-968,21.5,2.6,-27.0,21.7,2.7,-26.6,5.73,2.02,-15.8,27.9
2016-01-18 01:00:00,0.0,1.93605,0.00040,404.980,0.032,0.0815,0.0023,140.002,45.000,31908.56652,1.93758,405.376,35.365,45.069,45.000,0.00,0.08,-272.76,-272.82,-8,526,-968,21.5,2.6,-27.0,21.7,2.7,-26.5,5.73,2.01,-15.8,27.9
2016-01-18 01:01:00,0.0,1.93660,0.00038,404.972,0.042,0.0815,0.0017,139.999,45.000,31909.28788,1.93817,405.371,35.375,45.069,45.000,0.00,0.08,-272.75,-272.81,-8,526,-968,21.5,2.6,-27.1,21.7,2.7,-26.6,5.73,2.01,-15.8,27.9
2016-01-18 01:02:00,0.0,1.93684,0.00043,404.965,0.031,0.0815,0.0013,139.999,45.000,31907.76478,1.93838,405.361,35.398,45.069,45.000,0.00,0.08,-272.76,-272.80,-8,526,-968,21.5,2.6,-27.1,21.7,2.7,-26.6,5.73,2.02,-15.8,28.0
2016-01-18 01:03:00,0.0,1.93662,0.00025,404.958,0.027,0.0817,0.0013,140.000,45.000,31908.98790,1.93819,405.358,35.436,45.069,45.000,0.00,0.08,-272.76,-272.81,-8,526,-968,21.5,2.6,-27.1,21.7,2.7,-26.6,5.73,2.02,-15.8,28.0
2016-01-18 01:04:00,0.0,1.93650,0.00034,404.969,0.025,0.0813,0.0023,139.998,45.000,31909.51248,1.93806,405.364,35.430,45.069,44.999,0.00,0.09,-272.75,-272.81,-8,526,-968,21.5,2.6,-27.1,21.7,2.7,-26.6,5.73,2.02,-15.8,28.0
2016-01-18 01:05:00,0.0,1.93647,0.00035,404.962,0.028,0.0814,0.0020,140.000,45.000,31911.32934,1.93800,405.360,35.428,45.069,44.999,0.00,0.09,-272.75,-272.81,-8,526,-968,21.5,2.6,-27.1,21.7,2.7,-26.6,5.73,2.02,-15.8,28.0
2016-01-18 01:06:00,0.0,1.93652,0.00033,404.964,0.029,0.0812,0.0018,140.000,45.000,31911.71756,1.93806,405.360,35.407,45.069,45.000,0.00,0.09,-272.75,-272.82,-8,526,-968,21.5,2.6,-27.1,21.7,2.7,-26.7,5.73,2.02,-15.8,28.0
2016-01-18 01:07:00,0.0,1.93690,0.00031,404.958,0.028,0.0818,0.0015,139.999,45.000,31908.53238,1.93847,405.356,35.412,45.069,45.000,0.00,0.08,-272.75,-272.81,-8,526,-968,21.5,2.6,-27.1,21.7,2.7,-26.6,5.73,2.02,-15.8,28.0
2016-01-18 01:08:00,0.0,1.93683,0.00037,404.970,0.025,0.0817,0.0014,139.999,45.000,31908.14590,1.93838,405.368,35.433,45.069,45.000,0.00,0.09,-272.75,-272.81,-8,526,-968,21.5,2.6,-27.1,21.7,2.7,-26.6,5.73,2.02,-15.8,28.0
2016-01-18 01:09:00,0.0,1.93662,0.00034,404.963,0.033,0.0816,0.0013,139.999,45.000,31909.29576,1.93821,405.359,35.436,45.069,45.000,0.00,0.09,-272.75,-272.81,-8,526,-968,21.5,2.6,-27.1,21.7,2.7,-26.7,5.73,2.02,-15.8,28.0
2016-01-18 01:10:00,0.0,1.93633,0.00025,404.952,0.035,0.0813,0.0019,139.999,45.000,31908.56110,1.93790,405.350,35.403,45.069,45.000,0.00,0.09,-272.76,-272.82,-8,526,-968,21.5,2.6,-27.1,21.7,2.7,-26.6,5.73,2.02,-15.8,28.0
2016-01-18 01:11:00,0.0,1.93610,0.00031,404.969,0.031,0.0812,0.0017,139.999,45.000,31909.83307,1.93765,405.364,35.378,45.070,45.000,0.00,0.09,-272.75,-272.81,-8,526,-968,21.5,2.6,-27.1,21.7,2.7,-26.6,5.73,2.03,-15.8,28.0
2016-01-18 01:12:00,0.0,1.93619,0.00038,404.951,0.026,0.0814,0.0020,140.000,45.000,31910.56545,1.93774,405.348,35.393,45.070,45.001,0.00,0.09,-272.75,-272.81,-8,526,-968,21.5,2.6,-27.1,21.7,2.7,-26.6,5.73,2.02,-15.8,28.0
2016-01-18 01:13:00,0.0,1.93642,0.00041,404.970,0.032,0.0828,0.0015,139.999,45.000,31910.34699,1.93799,405.373,35.426,45.070,45.000,0.00,0.08,-272.76,-272.81,-8,526,-968,21.5,2.6,-27.1,21.7,2.7,-26.6,5.73,2.02,-15.8,27.9
2016-01-18 01:14:00,0.0,1.93637,0.00041,404.944,0.029,0.0816,0.0019,140.002,45.000,31912.87987,1.93792,405.342,35.431,45.070,45.000,0.00,0.08,-272.76,-272.81,-8,526,-968,21.5,2.6,-27.1,21.7,2.7,-26.6,5.73,2.02,-15.8,28.0
2016-01-18 01:15:00,0.0,1.93609,0.00038,404.959,0.035,0.0811,0.0014,139.998,45.000,31912.35094,1.93764,405.354,35.438,45.069,45.000,0.00,0.09,-272.75,-272.81,-8,526,-968,21.5,2.6,-27.1,21.7,2.7,-26.6,5.73,2.02,-15.8,28.0
2016-01-18 01:16:00,0.0,1.93603,0.00044,404.939,0.038,0.0813,0.0015,139.998,45.000,31913.09747,1.93759,405.336,35.453,45.069,45.000,0.00,0.09,-272.75,-272.81,-8,526,-968,21.5,2.6,-27.1,21.7,2.7,-26.6,5.73,2.02,-15.8,28.0
2016-01-18 01:17:00,0.0,1.93627,0.00038,404.961,0.031,0.0811,0.0014,139.997,45.000,31911.93985,1.93779,405.354,35.446,45.069,45.000,0.00,0.08,-272.76,-272.82,-8,526,-968,21.5,2.6,-27.1,21.7,2.7,-26.6,5.73,2.02,-15.7,28.0
2016-01-18 01:18:00,0.0,1.93622,0.00032,404.981,0.028,0.0810,0.0013,140.000,45.000,31911.70156,1.93779,405.376,35.440,45.069,45.000,0.00,0.09,-272.75,-272.81,-8,526,-968,21.5,2.6,-27.1,21.7,2.7,-26.6,5.73,2.02,-15.7,28.0
2016-01-18 01:19:00,0.0,1.93597,0.00036,404.969,0.038,0.0811,0.0016,140.001,45.000,31911.99126,1.93753,405.366,35.439,45.069,45.000,0.00,0.09,-272.74,-272.81,-8,526,-968,21.5,2.6,-27.2,21.7,2.6,-26.7,5.73,2.02,-15.7,28.0
2016-01-18 01:20:00,0.0,1.93599,0.00039,404.953,0.028,0.0806,0.0014,140.001,45.000,31913.56263,1.93753,405.345,35.437,45.069,45.000,0.00,0.08,-272.76,-272.81,-8,526,-968,21.5,2.6,-27.2,21.7,2.6,-26.7,5.73,2.03,-15.8,28.0
2016-01-18 01:21:00,0.0,1.93611,0.00052,404.949,0.032,0.0807,0.0010,139.997,45.000,31912.82958,1.93764,405.342,35.436,45.069,45.000,0.00,0.08,-272.75,-272.81,-8,526,-968,21.5,2.6,-27.2,21.7,2.6,-26.7,5.73,2.02,-15.7,28.0
2016-01-18 01:22:00,0.0,1.93625,0.00039,404.964,0.034,0.0804,0.0016,140.001,45.000,31913.93306,1.93780,405.355,35.438,45.069,45.000,0.00,0.09,-272.75,-272.81,-8,526,-968,21.5,2.6,-27.2,21.7,2.6,-26.7,5.73,2.02,-15.8,28.0
2016-01-18 01:23:00,0.0,1.93601,0.00035,404.957,0.029,0.0808,0.0017,140.001,45.000,31913.37111,1.93754,405.350,35.438,45.069,45.000,0.00,0.09,-272.76,-272.82,-8,526,-968,21.5,2.6,-27.2,21.7,2.6,-26.7,5.73,2.02,-15.8,28.0
2016-01-18 01:24:00,0.0,1.93648,0.00040,404.976,0.028,0.0808,0.0016,140.001,45.000,31910.37183,1.93798,405.370,35.440,45.069,45.000,0.00,0.08,-272.75,-272.82,-8,526,-968,21.5,2.6,-27.2,21.7,2.6,-26.8,5.73,2.02,-15.7,28.0
2016-01-18 01:25:00,0.0,1.93639,0.00037,404.976,0.034,0.0810,0.0016,139.999,45.000,31910.73135,1.93796,405.370,35.463,45.069,45.000,0.00,0.09,-272.75,-272.81,-8,526,-968,21.5,2.6,-27.2,21.7,2.6,-26.8,5.73,2.01,-15.7,28.0
2016-01-18 01:26:00,0.0,1.93628,0.00036,404.981,0.036,0.0809,0.0015,140.000,45.000,31911.83006,1.93784,405.376,35.486,45.069,45.000,0.00,0.08,-272.75,-272.81,-8,526,-968,21.5,2.6,-27.2,21.7,2.6,-26.7,5.73,2.02,-15.8,28.0
2016-01-18 01:27:00,0.0,1.93639,0.00035,404.974,0.026,0.0809,0.0014,139.998,45.000,31911.13484,1.93792,405.368,35.474,45.069,45.000,0.00,0.08,-272.76,-272.81,-8,526,-968,21.5,2.6,-27.2,21.7,2.6,-26.7,5.73,2.02,-15.8,28.0
2016-01-18 01:28:00,0.0,1.93615,0.00049,404.967,0.025,0.0812,0.0012,139.999,45.000,31909.90383,1.93772,405.360,35.479,45.069,45.000,0.00,0.09,-272.75,-272.81,-8,526,-968,21.5,2.6,-27.2,21.7,2.6,-26.7,5.73,2.02,-15.7,28.0
2016-01-18 01:29:00,0.0,1.93613,0.00034,404.984,0.024,0.0813,0.0018,140.002,45.000,31912.77674,1.93765,405.382,35.480,45.069,45.000,0.00,0.09,-272.75,-272.81,-8,526,-968,21.5,2.6,-27.2,21.7,2.6,-26.7,5.73,2.02,-15.8,28.0
2016-01-18 01:30:00,0.0,1.93597,0.00029,404.976,0.020,0.0810,0.0017,140.001,45.000,31913.38054,1.93751,405.371,35.463,45.069,45.000,0.00,0.08,-272.76,-272.81,-8,526,-968,21.5,2.6,-27.2,21.7,2.6,-26.7,5.73,2.02,-15.8,28.0
2016-01-18 01:31:00,0.0,1.93629,0.00040,404.977,0.035,0.0810,0.0018,140.001,45.000,31911.91673,1.93785,405.372,35.475,45.069,45.000,0.00,0.08,-272.75,-272.81,-8,526,-968,21.5,2.6,-27.2,21.7,2.6,-26.7,5.73,2.02,-15.7,28.0
2016-01-18 01:32:00,0.0,1.93615,0.00037,404.977,0.039,0.0811,0.0021,139.998,45.000,31910.79957,1.93769,405.372,35.441,45.069,45.000,0.00,0.09,-272.75,-272.80,-8,526,-968,21.5,2.6,-27.2,21.7,2.6,-26.7,5.73,2.02,-15.7,28.0
2016-01-18 01:33:00,0.0,1.93600,0.00026,404.963,0.036,0.0812,0.0014,139.998,45.000,31911.90333,1.93756,405.358,35.442,45.069,45.000,0.00,0.09,-272.75,-272.81,-8,526,-968,21.5,2.6,-27.2,21.7,2.6,-26.7,5.73,2.01,-15.7,28.0
2016-01-18 01:34:00,0.0,1.93612,0.00032,404.983,0.030,0.0811,0.0015,140.000,45.000,31912.51663,1.93767,405.377,35.468,45.069,45.000,0.00,0.08,-272.76,-272.82,-8,526,-968,21.5,2.6,-27.2,21.7,2.6,-26.7,5.73,2.01,-15.7,28.0
2016-01-18 01:35:00,0.0,1.93557,0.00039,404.970,0.032,0.0807,0.0018,139.998,45.000,31912.01471,1.93712,405.365,35.483,45.069,45.000,0.00,0.09,-272.75,-272.81,-8,526,-968,21.5,2.6,-27.2,21.7,2.7,-26.7,5.73,2.02,-15.7,28.0
2016-01-18 01:36:00,0.0,1.93539,0.00037,404.952,0.034,0.0807,0.0015,140.001,45.000,31914.66876,1.93691,405.345,35.499,45.069,45.000,0.00,0.09,-272.75,-272.81,-8,526,-968,21.5,2.6,-27.2,21.7,2.6,-26.7,5.73,2.01,-15.7,28.0
2016-01-18 01:37:00,0.0,1.93573,0.00032,404.965,0.029,0.0814,0.0014,140.000,45.000,31912.83770,1.93729,405.360,35.497,45.069,45.000,0.00,0.08,-272.75,-272.81,-8,526,-968,21.5,2.6,-27.2,21.7,2.6,-26.7,5.73,2.02,-15.7,28.0
2016-01-18 01:38:00,0.0,1.93571,0.00039,404.967,0.029,0.0801,0.0011,139.998,45.000,31912.40575,1.93724,405.358,35.496,45.069,45.000,0.00,0.09,-272.75,-272.81,-8,526,-968,21.5,2.6,-27.2,21.7,2.6,-26.7,5.73,2.01,-15.7,28.0
2016-01-18 01:39:00,0.0,1.93574,0.00025,404.955,0.037,0.0812,0.0020,140.001,45.000,31912.69383,1.93728,405.349,35.498,45.069,45.000,0.00,0.09,-272.75,-272.81,-8,526,-968,21.5,2.6,-27.2,21.7,2.6,-26.8,5.73,2.01,-15.7,28.0
2016-01-18 01:40:00,0.0,1.93591,0.00041,404.976,0.032,0.0803,0.0017,140.000,45.000,31911.72175,1.93743,405.369,35.500,45.069,45.000,0.00,0.09,-272.76,-272.81,-8,526,-968,21.6,2.6,-27.2,21.7,2.6,-26.8,5.73,2.01,-15.7,28.0
2016-01-18 01:41:00,0.0,1.93582,0.00059,404.964,0.032,0.0803,0.0020,139.999,45.000,31912.45165,1.93736,405.356,35.500,45.069,45.000,0.00,0.09,-272.76,-272.82,-8,526,-968,21.5,2.6,-27.2,21.7,2.6,-26.8,5.73,2.01,-15.7,28.0
2016-01-18 01:42:00,0.0,1.93595,0.00031,404.978,0.030,0.0798,0.0017,139.998,45.000,31911.81642,1.93747,405.365,35.496,45.069,45.000,0.00,0.09,-272.75,-272.80,-8,526,-968,21.5,2.6,-27.2,21.7,2.6,-26.8,5.73,2.01,-15.7,28.0
2016-01-18 01:43:00,0.0,1.93628,0.00041,404.976,0.032,0.0797,0.0014,140.002,45.000,31911.11319,1.93778,405.365,35.490,45.069,45.000,0.00,0.08,-272.75,-272.81,-8,526,-968,21.6,2.6,-27.2,21.7,2.6,-26.8,5.73,2.01,-15.7,28.0
2016-01-18 01:44:00,0.0,1.93678,0.00047,404.996,0.028,0.0802,0.0018,139.996,45.000,31909.70325,1.93829,405.386,35.492,45.069,45.000,0.00,0.08,-272.76,-272.81,-8,526,-968,21.6,2.5,-27.2,21.8,2.6,-26.8,5.73,2.01,-15.7,28.0
2016-01-18 01:45:00,0.0,1.93651,0.00030,404.991,0.034,0.0803,0.0015,140.000,45.000,31912.36948,1.93807,405.382,35.500,45.069,45.000,0.00,0.09,-272.75,-272.81,-8,526,-968,21.6,2.6,-27.2,21.8,2.6,-26.8,5.73,2.01,-15.7,28.0